[[{"header":{"parameterUnit":"m.s-1","parameterCategory":1,"la1":30.2991,"la2":30.254,"lo1":-89.0895,"lo2":-89.0444,"dy":0.0017,"dx":0.0017,"nx":28,"ny":28,"refTime":"2024-02-21T03:00:00:Z","depth":0,"parameterNumber":2,"parameterNumberName":"U-component_of_WINDS"},"data":[0,0,0,0,0,0,0,0,0,0,0,0,0,0,0,0,0,0,0,0,0,0,0,0,0,0,0,0,0,0,0,0,0,0,0,0,0,0,0,0,0,0,0,0,0,0,0,0,0,0,0,0,0,0,0,0,0,0,-0.7416,-0.7417,0,-0.748,-0.7481,-0.7481,-0.7489,-0.7489,-0.7488,-0.7488,-0.7554,-0.7557,-0.7559,0,0,0,0,0,0,0,0,0,0,0,0,0,-0.7304,-0.7306,-0.7416,-0.7417,-0.7418,-0.748,-0.7481,-0.7481,-0.7489,-0.7489,-0.7488,-0.7487,-0.7553,-0.7556,-0.7559,0,0,0,0,0,0,0,0,0,0,0,0,0,-0.7359,-0.7307,-0.7416,-0.7429,-0.7431,-0.748,-0.7481,-0.7482,-0.749,-0.7489,-0.7488,-0.7487,-0.7553,-0.7556,-0.7559,-0.76,0,0,-0.757,-0.7572,0,0,0,0,0,0,0,0,-0.7356,-0.7363,-0.7427,-0.7429,-0.7431,-0.7476,-0.7465,-0.7521,-0.749,-0.7468,-0.7488,-0.7486,-0.7529,-0.7534,-0.7548,-0.7603,-0.7606,-0.7571,-0.7573,-0.7574,-0.7575,0,0,0,0,0,0,0,-0.7352,-0.736,-0.7442,-0.7428,-0.743,-0.7433,-0.7439,-0.7476,-0.7503,-0.7469,-0.747,-0.7477,-0.753,-0.7545,-0.755,-0.7607,-0.757,-0.7574,-0.7576,-0.7577,-0.7698,-0.7699,0,0,0,0,0,0,-0.7345,-0.7357,-0.744,-0.7443,-0.739,-0.7435,-0.7443,-0.7462,-0.7502,-0.7507,-0.7478,-0.7478,-0.7539,-0.7546,-0.7552,-0.7602,-0.7574,-0.7577,-0.7579,-0.7697,-0.7698,-0.7699,0,0,0,0,0,0,-0.7343,-0.7353,-0.7437,-0.74,-0.7411,-0.7438,-0.746,-0.7464,-0.7479,-0.7509,-0.7514,-0.7488,-0.7539,-0.7547,-0.7588,-0.7604,-0.7579,-0.7582,-0.7695,-0.7697,-0.7698,-0.7701,0,0,0,0,0,0,-0.734,-0.7352,-0.7367,-0.7401,-0.7413,-0.7471,-0.7461,-0.7466,-0.7485,-0.7485,-0.752,-0.7525,-0.7539,-0.7582,-0.7591,-0.7609,-0.7585,-0.7694,-0.7696,-0.7698,-0.77,-0.7703,-0.7705,0,0,0,0,0,-0.7336,-0.7365,-0.7367,-0.7377,-0.7432,-0.7472,-0.7479,-0.7494,-0.7486,-0.7502,-0.7521,-0.7524,-0.7601,-0.7586,-0.7596,-0.7615,-0.7693,-0.7695,-0.7698,-0.7699,-0.7702,-0.7705,0,0,0,0,0,0,-0.7333,-0.737,-0.7373,-0.7414,-0.744,-0.7473,-0.7493,-0.7497,-0.7526,-0.7524,-0.7542,-0.755,-0.759,-0.7607,-0.759,-0.7657,-0.7646,-0.7651,-0.7644,-0.7647,-0.765,-0.7645,-0.7588,0,0,0,0,0,-0.7337,-0.7365,-0.7396,-0.743,-0.7443,-0.7466,-0.7483,-0.7492,-0.752,-0.7531,-0.7553,-0.758,-0.761,-0.763,-0.766,-0.7703,-0.7711,-0.7721,-0.7723,-0.7726,-0.7729,-0.7753,-0.7758,-0.7707,-0.7707,-0.7707,0,0,-0.7346,-0.737,-0.7387,-0.743,-0.7451,-0.748,-0.7474,-0.7506,-0.7527,-0.7536,-0.7575,-0.7592,-0.7624,-0.7665,-0.7685,-0.7681,-0.7745,-0.7729,-0.773,-0.7733,-0.7756,-0.7761,-0.7765,-0.7709,-0.7708,-0.7708,0,0,-0.7377,-0.7398,-0.7428,-0.7449,-0.7481,-0.7496,-0.7503,-0.7536,-0.7548,-0.7587,-0.7594,-0.7621,-0.7673,-0.7695,-0.7713,-0.7753,-0.7757,-0.7763,-0.7777,-0.78,-0.7804,-0.7808,-0.7822,-0.7827,-0.7766,-0.7766,-0.7766,0,-0.7385,-0.7428,-0.7443,-0.7474,-0.7493,-0.7502,-0.7533,-0.7553,-0.7592,-0.7606,-0.76,-0.7666,-0.7688,-0.7735,-0.7745,-0.7759,-0.7768,-0.7758,-0.7802,-0.7806,-0.781,-0.7824,-0.7829,-0.7767,-0.7767,-0.7767,-0.7767,0,-0.7435,-0.7466,-0.7486,-0.7524,-0.7545,-0.7576,-0.7597,-0.7617,-0.7625,-0.7641,-0.7681,-0.7708,-0.7743,-0.7755,-0.7763,-0.7804,-0.78,-0.7799,-0.7789,-0.7815,-0.7828,-0.7833,-0.7767,-0.7767,-0.7767,-0.7767,0,0,-0.7466,-0.7512,-0.7519,-0.7536,-0.7572,-0.7596,-0.7627,-0.7661,-0.7678,-0.7706,-0.7733,-0.7777,-0.7776,-0.7796,-0.7807,-0.7828,-0.7858,-0.7824,-0.7825,-0.7829,-0.7904,-0.7905,-0.791,-0.7861,-0.7862,-0.7863,-0.7901,0,-0.75,-0.7556,-0.7571,-0.7618,-0.7646,-0.7655,-0.7683,-0.7708,-0.7724,-0.7751,-0.777,-0.78,-0.7796,-0.7809,-0.783,-0.785,-0.7873,-0.7847,-0.7887,-0.7888,-0.7877,-0.7917,-0.7918,-0.7953,-0.7907,-0.7908,-0.7908,0,-0.7548,-0.7576,-0.7626,-0.7658,-0.767,-0.7695,-0.7727,-0.7753,-0.7782,-0.7792,-0.7815,-0.7825,-0.7859,-0.7848,-0.7895,-0.7877,-0.7894,-0.7907,-0.7909,-0.7912,-0.7899,-0.7921,-0.7964,-0.7969,-0.7917,-0.7916,-0.7915,0,-0.7564,-0.7615,-0.7651,-0.7665,-0.7704,-0.7721,-0.7738,-0.7766,-0.7786,-0.7815,-0.7828,-0.7861,-0.7878,-0.7904,-0.7922,-0.7912,-0.7968,-0.7958,-0.7978,-0.7977,-0.7988,-0.7987,-0.8034,-0.8,-0.8,-0.8,-0.8,0,-0.7601,-0.7631,-0.7659,-0.7681,-0.7715,-0.7733,-0.7766,-0.7784,-0.7809,-0.7835,-0.7846,-0.7871,-0.7893,-0.7921,-0.7936,-0.7973,-0.7981,-0.7991,-0.7994,-0.7989,-0.7988,-0.8,-0.7998,-0.8002,-0.8001,-0.8001,-0.8001,0,-0.7625,-0.7644,-0.7684,-0.7718,-0.7727,-0.775,-0.7779,-0.7802,-0.7819,-0.7852,-0.7861,-0.7887,-0.7921,-0.7942,-0.7985,-0.7994,-0.8035,-0.8038,-0.8025,-0.8026,-0.8044,-0.8042,-0.8099,-0.8108,-0.807,-0.807,-0.807,0,-0.7646,-0.7669,-0.7705,-0.7723,-0.774,-0.7769,-0.7789,-0.7808,-0.7829,-0.7864,-0.7882,-0.7916,-0.7944,-0.7998,-0.8022,-0.8055,-0.8058,-0.8076,-0.8063,-0.8058,-0.8058,-0.8056,-0.8058,-0.8078,-0.8078,-0.8078,-0.8079,0,-0.7682,-0.7691,-0.7719,-0.7751,-0.7774,-0.78,-0.7826,-0.784,-0.7864,-0.7886,-0.792,-0.7942,-0.7986,-0.802,-0.8055,-0.8074,-0.808,-0.8083,-0.8089,-0.8084,-0.8075,-0.8079,-0.803,-0.8081,-0.8081,-0.8081,-0.808,-0.808,-0.7705,-0.7726,-0.7755,-0.7786,-0.7807,-0.7831,-0.7854,-0.7873,-0.7902,-0.7938,-0.7948,-0.7984,-0.8014,-0.8061,-0.8081,-0.8109,-0.8107,-0.8116,-0.8118,-0.812,-0.812,-0.8071,-0.8116,-0.8116,-0.8116,-0.8116,-0.8116,0,-0.7741,-0.776,-0.7789,-0.7824,-0.7849,-0.7853,-0.7882,-0.7902,-0.7933,-0.796,-0.7987,-0.8027,-0.806,-0.8087,-0.8121,-0.8139,-0.8143,-0.8147,-0.8146,-0.815,-0.812,-0.8111,-0.8143,-0.8143,-0.8143,-0.8143,-0.8143,-0.8143,-0.7763,-0.7799,-0.7811,-0.7858,-0.7877,-0.7911,-0.7927,-0.795,-0.7971,-0.8015,-0.8042,-0.8059,-0.8086,-0.8122,-0.8153,-0.816,-0.8172,-0.8176,-0.8183,-0.8155,-0.8152,-0.8149,-0.8141,-0.8178,-0.8178,-0.821,-0.8211,-0.8211]},{"header":{"parameterUnit":"m.s-1","parameterCategory":1,"la1":30.2991,"la2":30.254,"lo1":-89.0895,"lo2":-89.0444,"dy":0.0017,"dx":0.0017,"nx":28,"ny":28,"refTime":"2024-02-21T03:00:00:Z","depth":0,"parameterNumber":3,"parameterNumberName":"V-component_of_WINDS"},"data":[0,0,0,0,0,0,0,0,0,0,0,0,0,0,0,0,0,0,0,0,0,0,0,0,0,0,0,0,0,0,0,0,0,0,0,0,0,0,0,0,0,0,0,0,0,0,0,0,0,0,0,0,0,0,0,0,0,0,0.293,0.2931,0,0.297,0.2971,0.2971,0.2968,0.2967,0.2966,0.2966,0.3008,0.301,0.3011,0,0,0,0,0,0,0,0,0,0,0,0,0,0.2853,0.2855,0.293,0.2931,0.2931,0.297,0.2971,0.2971,0.2968,0.2967,0.2966,0.2965,0.3008,0.301,0.3012,0,0,0,0,0,0,0,0,0,0,0,0,0,0.289,0.2855,0.293,0.2934,0.2935,0.297,0.2971,0.2971,0.2968,0.2967,0.2966,0.2965,0.3007,0.3009,0.3012,0.3046,0,0,0.302,0.3021,0,0,0,0,0,0,0,0,0.2887,0.2892,0.2933,0.2934,0.2935,0.2963,0.2959,0.2997,0.2968,0.2955,0.2966,0.2965,0.2994,0.2997,0.3007,0.3048,0.305,0.302,0.3021,0.3023,0.3023,0,0,0,0,0,0,0,0.2885,0.2891,0.2946,0.2934,0.2935,0.2935,0.2939,0.2966,0.2979,0.2956,0.2956,0.2961,0.2994,0.3005,0.3008,0.3051,0.302,0.3022,0.3024,0.3025,0.3123,0.3124,0,0,0,0,0,0,0.2881,0.2889,0.2945,0.2947,0.2908,0.2937,0.2941,0.2955,0.2979,0.2982,0.2962,0.2961,0.3001,0.3005,0.3009,0.3052,0.3023,0.3025,0.3026,0.3122,0.3123,0.3125,0,0,0,0,0,0,0.288,0.2886,0.2943,0.2918,0.2925,0.2939,0.2954,0.2956,0.2967,0.2983,0.2986,0.297,0.3,0.3006,0.3037,0.3054,0.3026,0.3028,0.3121,0.3122,0.3124,0.3137,0,0,0,0,0,0,0.2877,0.2886,0.2898,0.2918,0.2927,0.297,0.2955,0.2958,0.2971,0.297,0.2991,0.2994,0.3,0.3033,0.304,0.3057,0.303,0.3119,0.3122,0.3123,0.3136,0.3139,0.3142,0,0,0,0,0,0.2875,0.2901,0.2899,0.2906,0.2943,0.2971,0.2976,0.2981,0.2972,0.2985,0.2996,0.2993,0.3051,0.3037,0.3044,0.3062,0.3118,0.3121,0.3123,0.3134,0.3139,0.3142,0,0,0,0,0,0,0.2883,0.2903,0.2902,0.2935,0.2951,0.297,0.2987,0.2986,0.3006,0.3004,0.3011,0.3016,0.3047,0.3058,0.3042,0.3097,0.3083,0.3087,0.3089,0.3093,0.3097,0.3094,0.3033,0,0,0,0,0,0.2888,0.2909,0.2926,0.2954,0.2962,0.2973,0.2986,0.2989,0.3006,0.3013,0.3026,0.3043,0.3065,0.308,0.3101,0.3137,0.3142,0.3153,0.3156,0.3159,0.3162,0.3183,0.3188,0.3133,0.3133,0.3132,0,0,0.29,0.2914,0.2927,0.2956,0.2969,0.2991,0.2979,0.3002,0.3019,0.3017,0.3047,0.3057,0.3077,0.3111,0.3127,0.3121,0.3179,0.3162,0.3164,0.3166,0.3186,0.3192,0.3196,0.3134,0.3134,0.3134,0,0,0.2934,0.2945,0.297,0.2984,0.3003,0.3011,0.3016,0.3036,0.3043,0.3073,0.3072,0.3092,0.313,0.3144,0.3157,0.3196,0.3195,0.3203,0.3221,0.3241,0.3246,0.3249,0.3265,0.327,0.3206,0.3206,0.3206,0,0.2946,0.2979,0.2983,0.3007,0.3021,0.3019,0.3045,0.3057,0.3083,0.3093,0.3085,0.3133,0.3146,0.3184,0.3194,0.3203,0.3211,0.3201,0.3244,0.3248,0.3252,0.3267,0.3272,0.3207,0.3207,0.3207,0.3207,0,0.2994,0.3016,0.3034,0.3059,0.3074,0.3099,0.3108,0.3123,0.3125,0.3133,0.3165,0.3181,0.3206,0.3214,0.3216,0.3253,0.3249,0.3243,0.323,0.3258,0.3272,0.3278,0.3208,0.3208,0.3208,0.3207,0,0,0.3034,0.3061,0.3067,0.3079,0.3101,0.3119,0.3144,0.3167,0.3181,0.3198,0.322,0.3252,0.3247,0.3261,0.3265,0.3282,0.3314,0.3274,0.3275,0.3282,0.3356,0.3362,0.3368,0.3313,0.3314,0.3314,0.3355,0,0.307,0.3114,0.3119,0.3158,0.318,0.3179,0.3201,0.3217,0.3226,0.3246,0.3255,0.3279,0.3269,0.3278,0.3295,0.3306,0.3329,0.3303,0.3334,0.3335,0.333,0.3375,0.3381,0.3418,0.336,0.3361,0.3362,0,0.3118,0.3137,0.3179,0.3198,0.3208,0.3227,0.325,0.3269,0.3287,0.3293,0.3308,0.331,0.3337,0.3322,0.336,0.3342,0.3355,0.3362,0.3364,0.3368,0.3351,0.3381,0.343,0.3436,0.337,0.337,0.3369,0,0.3145,0.3181,0.321,0.322,0.3243,0.3257,0.3268,0.3285,0.33,0.332,0.3329,0.3352,0.3365,0.3383,0.3391,0.3379,0.3429,0.3414,0.3435,0.3434,0.3446,0.3445,0.3499,0.3452,0.3452,0.3452,0.3452,0,0.3185,0.3211,0.3223,0.3241,0.327,0.3276,0.3305,0.3315,0.3331,0.3352,0.3352,0.3372,0.3381,0.3402,0.3409,0.344,0.3445,0.3451,0.3452,0.3451,0.3451,0.3461,0.3459,0.3454,0.3453,0.3453,0.3453,0,0.322,0.3229,0.3261,0.3281,0.3286,0.3307,0.3324,0.3342,0.335,0.3377,0.3384,0.3397,0.3422,0.3432,0.3462,0.3467,0.3503,0.3502,0.3497,0.3497,0.3518,0.3516,0.358,0.359,0.3536,0.3536,0.3537,0,0.3246,0.3266,0.3287,0.3301,0.3312,0.3334,0.3349,0.3355,0.3371,0.3394,0.341,0.3435,0.3455,0.3496,0.3509,0.3533,0.3533,0.3554,0.3536,0.3535,0.3535,0.3534,0.3536,0.3557,0.3558,0.3558,0.3558,0,0.3292,0.3295,0.3316,0.3338,0.3355,0.3374,0.3391,0.3403,0.3412,0.3429,0.3455,0.3471,0.3503,0.3528,0.3552,0.3564,0.3563,0.3564,0.357,0.357,0.3566,0.357,0.3507,0.3562,0.3562,0.3562,0.3561,0.3561,0.3324,0.3342,0.336,0.3383,0.3397,0.3413,0.3432,0.3442,0.3464,0.349,0.3492,0.352,0.3539,0.3572,0.3585,0.3607,0.3602,0.361,0.3613,0.3615,0.3617,0.3562,0.3611,0.3611,0.3611,0.3611,0.3611,0,0.337,0.3382,0.3403,0.3428,0.3446,0.3443,0.3463,0.3479,0.3503,0.352,0.3541,0.3571,0.3595,0.361,0.3635,0.365,0.3651,0.3657,0.3656,0.3659,0.362,0.3613,0.3656,0.3656,0.3656,0.3656,0.3656,0.3656,0.3397,0.3427,0.3433,0.3471,0.3482,0.3509,0.3521,0.3537,0.3551,0.3584,0.3604,0.3614,0.363,0.3656,0.3679,0.3683,0.3693,0.3699,0.3703,0.3666,0.3662,0.3657,0.3651,0.3701,0.3701,0.374,0.3741,0.3741]}]]